Location: *
(50.8667°S, 179.2667°W)
Time: 07:01:54
(UTC+00:00)

Lacrosse 5 - Pass Details

Date: 02 October 2023
Orbit: 714 x 724 km, 57.0° (Epoch: 09 March)

Event Time Altitude Azimuth Distance (km) Brightness Sun altitude
Exits shadow 14:12:16 38° 57° (ENE) 1,113 2.8 -27.2°
Drops below altitude 10° 14:16:37 10° 113° (ESE) 2,228 5.2 -26.8°
Sets 14:19:08 0° 120° (ESE) 3,153 6.4 -26.5°
